(72228) = 2001 AR14 = 1999 TJ268

Discovered at Socorro on 2001-01-02 by LINEAR.

Orbit

Orbit type: Main Belt

Note: WebGL enabled browser required.

epoch2023-02-25.0
epoch JD2460000.5
perihelion date2021-02-20.58138
perihelion JD2459266.08138
argument of perihelion (°)110.32071
ascending node (°)264.98792
inclination (°)9.86500
eccentricity0.0582339
perihelion distance (AU)2.4719361
Tisserand w.r.t. Jupiter3.4
ΔV w.r.t. Earth (km/sec)10.3
semimajor axis (AU)2.6247878
mean anomaly (°)170.21829
mean daily motion (°/day)0.23177280
aphelion distance (AU)2.778
period (years)4.25
P-vector [x]0.95070507
P-vector [y]0.17943484
P-vector [z]0.25290909
Q-vector [x]-0.25890321
Q-vector [y]0.90818287
Q-vector [z]0.32889664
absolute magnitude15.25
phase slope0.15
uncertainty0
referenceMPO 745323
observations used1137
oppositions19
arc length (days)8678
first opposition used1999
last opposition used2023
residual rms (arc-secs)0.69
perturbers coarse indicatorM-v
perturbers precise indicator003Ek
first observation date used1999-09-08.0
last observation date used2023-06-12.0
computer nameMPCLINUX
JD of orbit computation2456760.623999
perihelion JD uncertainty (days)1.2952E-04
argument of perihelion uncertainty (°)3.6686E-05
ascending node uncertainty (°)1.9581E-05
inclination uncertainty (°)3.2853E-06
eccentricity uncertainty 4.3071E-08
perihelion distance uncertainty (AU)1.1035E-07
Minimum Orbit Intersection Distances (in AU)
for orbit epoch: 2460000.5, reference: E2023-L69
Mercury2.12752
Venus1.76853
Earth1.49347
Mars1.0045
Jupiter2.52693
Saturn6.46684
Uranus15.7367
Neptune27.4115

Observations

1161 total observations over interval: 1999 09 08.33619 – 2023 06 12.199130
These data are available for download (format description).

Date (UT) J2000 RA J2000 Dec Magn Location Ref
1999 09 08.33619 23 49 45.43 +16 30 02.1 18.9   704 – Lincoln Laboratory ETS, New Mexico MPS 25032
1999 09 08.35004 23 49 44.78 +16 30 00.4 19.0   704 – Lincoln Laboratory ETS, New Mexico MPS 25032
1999 09 08.36360 23 49 44.08 +16 29 58.0 19.0   704 – Lincoln Laboratory ETS, New Mexico MPS 25032
1999 09 08.37729 23 49 43.43 +16 29 56.0 19.2   704 – Lincoln Laboratory ETS, New Mexico MPS 25032
1999 09 08.39083 23 49 42.69 +16 29 52.4 19.3   704 – Lincoln Laboratory ETS, New Mexico MPS 25032
1999 10 03.17439 23 29 19.58 +14 18 56.6 18.2 R 703 – Catalina Sky Survey MPS 16566
1999 10 03.18670 23 29 19.00 +14 18 53.3 18.1 R 703 – Catalina Sky Survey MPS 16566
1999 10 03.19905 23 29 18.42 +14 18 46.8 19.1 R 703 – Catalina Sky Survey MPS 16566
1999 10 03.21130 23 29 17.86 +14 18 41.2 18.6 R 703 – Catalina Sky Survey MPS 16566
1999 10 03.24220 23 29 16.28 +14 18 27.4 19.9   704 – Lincoln Laboratory ETS, New Mexico MPS 15467
1999 10 03.25267 23 29 15.93 +14 18 23.0 19.8   704 – Lincoln Laboratory ETS, New Mexico MPS 15467
1999 10 03.26311 23 29 15.38 +14 18 18.6 19.5   704 – Lincoln Laboratory ETS, New Mexico MPS 15467
1999 10 03.27357 23 29 14.91 +14 18 13.1 19.5   704 – Lincoln Laboratory ETS, New Mexico MPS 15467
1999 10 10.10635 23 24 35.65 +13 26 29.9 19.3   704 – Lincoln Laboratory ETS, New Mexico MPS 15467
1999 10 10.12163 23 24 35.05 +13 26 24.5 19.4   704 – Lincoln Laboratory ETS, New Mexico MPS 15467
1999 10 10.13690 23 24 34.47 +13 26 15.4 19.3   704 – Lincoln Laboratory ETS, New Mexico MPS 15467
1999 10 10.15218 23 24 33.84 +13 26 10.1 19.7   704 – Lincoln Laboratory ETS, New Mexico MPS 15467
1999 10 20.16702 23 19 34.99 +12 08 47.1 19.2   704 – Lincoln Laboratory ETS, New Mexico MPS 25032
1999 10 20.18262 23 19 34.56 +12 08 40.5 19.1   704 – Lincoln Laboratory ETS, New Mexico MPS 25032
1999 10 20.19819 23 19 34.17 +12 08 33.9 19.8   704 – Lincoln Laboratory ETS, New Mexico MPS 25032
1999 10 20.21380 23 19 33.82 +12 08 28.2 19.6   704 – Lincoln Laboratory ETS, New Mexico MPS 25033
1999 10 20.22936 23 19 33.44 +12 08 20.4 19.1   704 – Lincoln Laboratory ETS, New Mexico MPS 25033
2000 11 27.37208 08 36 51.94 +13 15 52.9 18.9   704 – Lincoln Laboratory ETS, New Mexico MPS 25557
2000 11 27.38660 08 36 51.94 +13 15 49.5 19.6   704 – Lincoln Laboratory ETS, New Mexico MPS 25557
2000 11 27.40111 08 36 52.05 +13 15 44.6 19.1   704 – Lincoln Laboratory ETS, New Mexico MPS 25557
2000 11 27.41562 08 36 52.15 +13 15 40.6 19.1   704 – Lincoln Laboratory ETS, New Mexico MPS 25557
2000 11 27.43014 08 36 52.22 +13 15 35.2 19.2   704 – Lincoln Laboratory ETS, New Mexico MPS 25557
2001 01 02.31858 08 22 26.54 +11 10 19.2 19.3   704 – Lincoln Laboratory ETS, New Mexico MPS 24281
2001 01 02.33408 08 22 25.75 +11 10 17.5 18.1   704 – Lincoln Laboratory ETS, New Mexico MPS 24281
2001 01 02.34997 08 22 24.83 +11 10 16.4 18.0   704 – Lincoln Laboratory ETS, New Mexico MPS 24281
2001 01 03.28495 08 21 37.06 +11 08 47.9 18.3 R 699 – Lowell Observatory-LONEOS MPS 24281
2001 01 03.30832 08 21 35.70 +11 08 48.3   699 – Lowell Observatory-LONEOS MPS 24281
2001 01 03.31351 08 21 35.49 +11 08 45.4 18.6   704 – Lincoln Laboratory ETS, New Mexico MPS 24281
2001 01 03.32825 08 21 34.73 +11 08 44.3 19.1   704 – Lincoln Laboratory ETS, New Mexico MPS 24281
2001 01 03.33176 08 21 34.55 +11 08 42.8   699 – Lowell Observatory-LONEOS MPS 24281
2001 01 03.34304 08 21 33.92 +11 08 44.0 18.8   704 – Lincoln Laboratory ETS, New Mexico MPS 24281
2001 01 03.35523 08 21 33.31 +11 08 41.5   699 – Lowell Observatory-LONEOS MPS 24281
2001 01 03.37315 08 21 32.28 +11 08 40.8 19.2   704 – Lincoln Laboratory ETS, New Mexico MPS 24281
2001 01 19.31121 08 06 15.04 +10 57 27.7 18.8   704 – Lincoln Laboratory ETS, New Mexico MPS 25557
2001 01 19.32666 08 06 14.07 +10 57 26.9 19.6   704 – Lincoln Laboratory ETS, New Mexico MPS 25557
2001 01 19.35810 08 06 12.08 +10 57 27.4 19.3   704 – Lincoln Laboratory ETS, New Mexico MPS 25557
2001 01 20.40386 08 05 09.05 +10 57 34.8 18.5   608 – Haleakala-AMOS MPS 25557
2001 01 20.41411 08 05 08.40 +10 57 34.9 18.4   608 – Haleakala-AMOS MPS 25557
2001 01 20.42503 08 05 07.73 +10 57 35.3 18.2   608 – Haleakala-AMOS MPS 25557
2001 01 29.30808 07 56 21.82 +11 01 42.0 19.9   608 – Haleakala-AMOS MPS 25557
2001 01 29.31849 07 56 21.24 +11 01 42.8 19.8   608 – Haleakala-AMOS MPS 25557
2001 01 29.32874 07 56 20.60 +11 01 42.7 19.8   608 – Haleakala-AMOS MPS 25557
2001 02 17.28709 07 41 30.81 +11 23 40.5 18.6   704 – Lincoln Laboratory ETS, New Mexico MPS 26782
2001 02 17.30102 07 41 30.21 +11 23 41.5 18.9   704 – Lincoln Laboratory ETS, New Mexico MPS 26782
2001 02 17.31545 07 41 29.77 +11 23 41.2 19.0   704 – Lincoln Laboratory ETS, New Mexico MPS 26782
2001 02 18.39504 07 40 53.74 +11 25 10.0 19.3   608 – Haleakala-AMOS MPS 26782
2001 02 18.40531 07 40 53.36 +11 25 11.3 19.3   608 – Haleakala-AMOS MPS 26782
2001 02 18.41560 07 40 53.03 +11 25 12.5 19.0   608 – Haleakala-AMOS MPS 26782
2002 05 09.28050 14 06 41.41 -24 09 14.5 19.5   704 – Lincoln Laboratory ETS, New Mexico MPS 57117
2002 05 09.29310 14 06 40.77 -24 09 08.7 19.5   704 – Lincoln Laboratory ETS, New Mexico MPS 57117
2002 05 09.30555 14 06 40.15 -24 09 02.0 19.6   704 – Lincoln Laboratory ETS, New Mexico MPS 57117
2002 05 09.31797 14 06 39.41 -24 08 57.9 19.8   704 – Lincoln Laboratory ETS, New Mexico MPS 57117
2002 05 11.32637 14 05 01.40 -23 53 40.3 19.9   644 – Palomar Mountain/NEAT MPS 57117
2002 05 11.34725 14 05 00.34 -23 53 31.0 20.1   644 – Palomar Mountain/NEAT MPS 57117
2002 05 11.36883 14 04 59.31 -23 53 21.0 19.6   644 – Palomar Mountain/NEAT MPS 57117
2003 06 27.38403 22 11 20.23 -00 17 56.5 19.8 R 699 – Lowell Observatory-LONEOS MPS 81891
2003 06 27.39655 22 11 20.27 -00 17 51.0   699 – Lowell Observatory-LONEOS MPS 81891
2003 06 27.40913 22 11 20.38 -00 17 46.9   699 – Lowell Observatory-LONEOS MPS 81891
2003 06 27.42176 22 11 20.27 -00 17 41.1   699 – Lowell Observatory-LONEOS MPS 81891
2003 08 01.30405 21 59 03.07 +02 03 20.0 19.4   704 – Lincoln Laboratory ETS, New Mexico MPS 82649
2003 08 01.32488 21 59 02.07 +02 03 20.5 19.6   704 – Lincoln Laboratory ETS, New Mexico MPS 82649
2003 08 01.33531 21 59 01.59 +02 03 22.4 19.7   704 – Lincoln Laboratory ETS, New Mexico MPS 82649
2003 09 13.30090 21 24 27.18 +00 14 26.9 18.3 R 699 – Lowell Observatory-LONEOS MPS 84496
2003 09 13.31427 21 24 26.75 +00 14 22.0   699 – Lowell Observatory-LONEOS MPS 84496
2003 09 13.32759 21 24 26.19 +00 14 17.5   699 – Lowell Observatory-LONEOS MPS 84496
2003 09 13.34080 21 24 25.86 +00 14 15.7   699 – Lowell Observatory-LONEOS MPS 84496
2003 09 16.11888 21 22 57.92 +00 01 26.6 18.6 R 699 – Lowell Observatory-LONEOS MPS 85132
2003 09 16.13878 21 22 57.32 +00 01 20.4   699 – Lowell Observatory-LONEOS MPS 85132
2003 09 16.15872 21 22 56.65 +00 01 15.2   699 – Lowell Observatory-LONEOS MPS 85132
2003 09 16.17870 21 22 55.99 +00 01 09.5   699 – Lowell Observatory-LONEOS MPS 85132
2003 09 18.17899 21 21 59.59 -00 08 03.6 18.5   704 – Lincoln Laboratory ETS, New Mexico MPS 84496
2003 09 18.18561 21 21 59.48 -00 08 04.7 18.8   644 – Palomar Mountain/NEAT MPS 84496
2003 09 18.19086 21 21 59.24 -00 08 06.4 19.2   704 – Lincoln Laboratory ETS, New Mexico MPS 84496
2003 09 18.20268 21 21 58.91 -00 08 09.8 19.4   704 – Lincoln Laboratory ETS, New Mexico MPS 84496
2003 09 18.20715 21 21 58.84 -00 08 10.7 18.7   644 – Palomar Mountain/NEAT MPS 84496
2003 09 18.21440 21 21 58.58 -00 08 13.4 19.0   704 – Lincoln Laboratory ETS, New Mexico MPS 84496
2003 09 18.22637 21 21 58.24 -00 08 16.1 19.2   704 – Lincoln Laboratory ETS, New Mexico MPS 84496
2003 09 18.22802 21 21 58.26 -00 08 16.3 18.8   644 – Palomar Mountain/NEAT MPS 84496
2003 09 27.10442 21 19 05.48 -00 47 50.4 18.7 R 699 – Lowell Observatory-LONEOS MPS 86141
2003 09 27.11768 21 19 05.25 -00 47 54.1   699 – Lowell Observatory-LONEOS MPS 86141
2003 09 27.13093 21 19 05.07 -00 47 57.4   699 – Lowell Observatory-LONEOS MPS 86141
2003 09 27.14428 21 19 04.91 -00 48 00.5   699 – Lowell Observatory-LONEOS MPS 86141
2003 09 30.16816 21 18 36.00 -01 00 32.8 19.2   704 – Lincoln Laboratory ETS, New Mexico MPS 86141
